Вернуться в каталог

STARLINK-32366

АктивенСвязьVLEO
NORAD 61551·PAYLOAD·🇺🇸 United States

Запущен Oct 15, 2024 с Vandenberg Space Force Base

Loading…

Ближайшие Пролёты (ближайшие 24 часа)

TLE

СвежийSource: CelesTrak SupGP

Эпоха: Sep 15, 2026, 03:08 UTC

1 61551C 24184V   26258.13104167 -.00063845  00000+0 -18865-2 0  2588
2 61551  53.1574 210.6667 0001338  88.0728  85.7663 15.34419446    18

Отслеживайте STARLINK-32366 в реальном времени с AllMySat

Download on the App Store